Terminal Aerodrome Forecast
Issued by NWS

Home | Current Version | Previous Version | Text Only | Print | Product List | Glossary Off
Versions: 1 2 3 4 5 6 7 8 9 10 11 12 13 14 15

000
FTUS43 KICT 281730
TAFRSL
TAF
KRSL 281730Z 2818/2918 13011KT P6SM SKC
     FM290600 18020G27KT P6SM BKN250
     FM290900 22014G20KT P6SM SCT100 BKN200
     FM291500 34020G29KT P6SM SKC=

USA.gov is the U.S. government's official web portal to all federal, state and local government web resources and services.